Madison, MN

7:05 AM CDT on October 15, 2019 (GMT -0500)
Madison-Lac Qui Parle County

Weather History for KDXX - August, 2019

Change the Weather History Date:

Monday, August 12, 2019

  Actual Average (KAQP) Record (KAQP)
Temperature  
Mean Temperature 72 °F -  
Max Temperature 78 °F 77 °F 89 °F (2015)
Min Temperature 66 °F 55 °F 48 °F (2004)
Cooling Degree Days 7    
Growing Degree Days 22 (Base 50)    
Moisture  
Dew Point 68 °F    
Average Humidity 90    
Maximum Humidity 100    
Minimum Humidity 69    
Precipitation  
Precipitation 0.00 in - - ()
Sea Level Pressure  
Sea Level Pressure 29.88 in    
Wind  
Wind Speed 2 mph (SE)    
Max Wind Speed 8 mph    
Max Gust Speed -    
Visibility 8 miles    
Events Rain    
Averages and records for this station are not official NWS values.
T = Trace of Precipitation, MM = Missing Value Source: NWS Daily Summary

Daily Weather History Graph

Daily Weather History Graph

Search for Another Location

Airport or City:

Astronomy

Aug. 12, 2019 Rise Set
Actual Time 6:22 AM CDT 8:36 PM CDT
Civil Twilight 5:50 AM CDT 9:08 PM CDT
Nautical Twilight 5:10 AM CDT 9:48 PM CDT
Astronomical Twilight 4:25 AM CDT 10:32 PM CDT
Moon 7:13 PM CDT (8/12) 3:26 AM CDT (8/12)
Length of Visible Light 15h 17m
Length of Day
14h 13m
Waxing Gibbous, 93% of the Moon is Illuminated
Aug 12
Waxing Gibbous
Aug 15
Full
Aug 23
Last Quarter
Aug 30
New
Sep 5
First Quarter

Hourly Weather History & Observations

Time (CDT) Temp. Dew Point Humidity Pressure Visibility Wind Dir Wind Speed Gust Speed Precip Events Conditions
12:16 AM 66.2 °F 66.2 °F 100% 29.95 in 10.0 mi Calm Calm - N/A   Clear
12:35 AM 68.0 °F 66.2 °F 94% 29.95 in 10.0 mi Calm Calm - N/A   Clear
12:36 AM 68.0 °F 66.2 °F 94% 29.95 in 10.0 mi Calm Calm - N/A   Clear
12:55 AM 68.0 °F 66.2 °F 94% 29.95 in 10.0 mi Calm Calm - N/A   Clear
12:56 AM 68.0 °F 66.2 °F 94% 29.95 in 10.0 mi Calm Calm - N/A   Clear
1:18 AM 66.2 °F 66.2 °F 100% 29.95 in 7.0 mi SSE 4.6 mph - N/A   Clear
1:37 AM 66.2 °F 66.2 °F 100% 29.93 in 7.0 mi SSE 3.5 mph - N/A   Clear
1:58 AM 66.2 °F 66.2 °F 100% 29.93 in 5.0 mi Calm Calm - N/A   Clear
2:15 AM 66.2 °F 66.2 °F 100% 29.92 in 5.0 mi Calm Calm - N/A   Clear
2:16 AM 66.2 °F 66.2 °F 100% 29.92 in 5.0 mi Calm Calm - N/A   Clear
2:35 AM 66.2 °F 66.2 °F 100% 29.92 in 5.0 mi Calm Calm - N/A   Clear
2:57 AM 66.2 °F 64.4 °F 94% 29.91 in 5.0 mi Calm Calm - N/A   Clear
3:15 AM 66.2 °F 64.4 °F 94% 29.92 in 5.0 mi Calm Calm - N/A   Clear
3:35 AM 66.2 °F 64.4 °F 94% 29.92 in 4.0 mi Calm Calm - N/A   Clear
3:36 AM 66.2 °F 64.4 °F 94% 29.92 in 4.0 mi Calm Calm - N/A   Clear
3:55 AM 66.2 °F 66.2 °F 100% 29.92 in 4.0 mi Calm Calm - N/A   Scattered Clouds
3:56 AM 66.2 °F 66.2 °F 100% 29.92 in 4.0 mi Calm Calm - N/A   Scattered Clouds
4:19 AM 66.2 °F 64.4 °F 94% 29.92 in 4.0 mi Calm Calm - N/A   Scattered Clouds
4:36 AM 66.2 °F 66.2 °F 100% 29.91 in 3.0 mi ENE 4.6 mph - N/A   Clear
4:56 AM 66.2 °F 66.2 °F 100% 29.89 in 3.0 mi ENE 8.1 mph - N/A   Light Drizzle
5:15 AM 66.2 °F 66.2 °F 100% 29.88 in 3.0 mi ENE 5.8 mph - N/A   Clear
5:35 AM 68.0 °F 66.2 °F 94% 29.89 in 4.0 mi East 3.5 mph - N/A   Drizzle
5:39 AM 68.0 °F 66.2 °F 94% 29.89 in 4.0 mi East 3.5 mph - N/A   Drizzle
5:58 AM 66.2 °F 66.2 °F 100% 29.89 in 3.0 mi Calm Calm - N/A Rain Light Rain
6:15 AM 66.2 °F 66.2 °F 100% 29.88 in 3.0 mi Calm Calm - N/A Rain Rain
6:35 AM 66.2 °F 66.2 °F 100% 29.88 in 2.0 mi East 3.5 mph - N/A   Clear
6:36 AM 66.2 °F 66.2 °F 100% 29.88 in 2.0 mi East 3.5 mph - N/A   Clear
6:55 AM 66.2 °F 66.2 °F 100% 29.88 in 2.0 mi East 4.6 mph - N/A   Clear
7:19 AM 68.0 °F 66.2 °F 94% 29.87 in 1.8 mi East 4.6 mph - N/A   Mist
7:36 AM 68.0 °F 66.2 °F 94% 29.87 in 2.0 mi East 4.6 mph - N/A   Clear
7:55 AM 68.0 °F 66.2 °F 94% 29.88 in 3.0 mi East 5.8 mph - N/A   Clear
8:15 AM 68.0 °F 66.2 °F 94% 29.89 in 4.0 mi ESE 5.8 mph - N/A   Mostly Cloudy
8:16 AM 68.0 °F 66.2 °F 94% 29.89 in 4.0 mi ESE 5.8 mph - N/A   Mostly Cloudy
8:35 AM 69.8 °F 68.0 °F 94% 29.88 in 4.0 mi ESE 8.1 mph - N/A   Overcast
8:40 AM 69.8 °F 68.0 °F 94% 29.89 in 4.0 mi SE 6.9 mph - N/A   Overcast
8:57 AM 69.8 °F 68.0 °F 94% 29.88 in 5.0 mi ESE 5.8 mph - N/A   Overcast
9:15 AM 69.8 °F 68.0 °F 94% 29.88 in 5.0 mi ESE 6.9 mph - N/A   Overcast
9:35 AM 69.8 °F 68.0 °F 94% 29.88 in 7.0 mi SE 3.5 mph - N/A   Overcast
9:36 AM 69.8 °F 68.0 °F 94% 29.88 in 7.0 mi SE 4.6 mph - N/A   Overcast
9:55 AM 69.8 °F 68.0 °F 94% 29.88 in 7.0 mi Calm Calm - N/A   Overcast
9:56 AM 69.8 °F 68.0 °F 94% 29.88 in 7.0 mi Calm Calm - N/A   Overcast
10:18 AM 69.8 °F 68.0 °F 94% 29.90 in 7.0 mi Calm Calm - N/A   Overcast
10:36 AM 69.8 °F 68.0 °F 94% 29.90 in 10.0 mi Calm Calm - N/A   Light Drizzle
10:55 AM 71.6 °F 68.0 °F 88% 29.90 in 7.0 mi Calm Calm - N/A Rain Light Rain
10:56 AM 71.6 °F 68.0 °F 88% 29.90 in 7.0 mi Calm Calm - N/A Rain Light Rain
11:15 AM 71.6 °F 69.8 °F 94% 29.89 in 7.0 mi Calm Calm - N/A Rain Light Rain
11:16 AM 71.6 °F 69.8 °F 94% 29.89 in 7.0 mi Calm Calm - N/A Rain Light Rain
11:35 AM 71.6 °F 69.8 °F 94% 29.89 in 10.0 mi SE 4.6 mph - N/A   Light Drizzle
11:40 AM 71.6 °F 69.8 °F 94% 29.88 in 10.0 mi SE 3.5 mph - N/A Rain Light Rain
11:58 AM 73.4 °F 69.8 °F 88% 29.89 in 10.0 mi Calm Calm - N/A   Light Drizzle
12:15 PM 73.4 °F 69.8 °F 88% 29.88 in 10.0 mi East 5.8 mph - N/A   Light Drizzle
12:35 PM 73.4 °F 69.8 °F 88% 29.88 in 10.0 mi ESE 4.6 mph - N/A Rain Light Rain
12:36 PM 73.4 °F 69.8 °F 88% 29.88 in 10.0 mi ESE 5.8 mph - N/A Rain Light Rain
12:55 PM 73.4 °F 69.8 °F 88% 29.88 in 10.0 mi SE 5.8 mph - N/A   Light Drizzle
12:56 PM 73.4 °F 69.8 °F 88% 29.88 in 10.0 mi SE 5.8 mph - N/A   Light Drizzle
1:19 PM 73.4 °F 69.8 °F 88% 29.87 in 10.0 mi SSE 3.5 mph - N/A Rain Light Rain
1:37 PM 73.4 °F 69.8 °F 88% 29.87 in 10.0 mi SSE 3.5 mph - N/A Rain Light Rain
1:56 PM 75.2 °F 69.8 °F 83% 29.86 in 10.0 mi Calm Calm - N/A   Light Drizzle
2:15 PM 75.2 °F 69.8 °F 83% 29.86 in 10.0 mi Calm Calm - N/A   Mostly Cloudy
2:16 PM 75.2 °F 69.8 °F 83% 29.86 in 10.0 mi Calm Calm - N/A   Mostly Cloudy
2:35 PM 75.2 °F 69.8 °F 83% 29.86 in 10.0 mi Calm Calm - N/A   Mostly Cloudy
2:57 PM 75.2 °F 69.8 °F 83% 29.87 in 10.0 mi Calm Calm - N/A   Mostly Cloudy
3:16 PM 75.2 °F 69.8 °F 83% 29.86 in 7.0 mi South 3.5 mph - N/A   Drizzle
3:35 PM 75.2 °F 71.6 °F 89% 29.85 in 10.0 mi South 4.6 mph - N/A   Mostly Cloudy
3:36 PM 75.2 °F 71.6 °F 89% 29.86 in 10.0 mi South 5.8 mph - N/A   Mostly Cloudy
3:55 PM 75.2 °F 71.6 °F 89% 29.86 in 10.0 mi SSW 4.6 mph - N/A   Overcast
4:18 PM 75.2 °F 71.6 °F 89% 29.86 in 10.0 mi Calm Calm - N/A   Overcast
4:36 PM 75.2 °F 69.8 °F 83% 29.86 in 10.0 mi Calm Calm - N/A   Overcast
4:55 PM 78.8 °F 69.8 °F 74% 29.86 in 10.0 mi Calm Calm - N/A   Scattered Clouds
4:56 PM 78.8 °F 69.8 °F 74% 29.86 in 10.0 mi Calm Calm - N/A   Scattered Clouds
5:15 PM 78.8 °F 68.0 °F 69% 29.85 in 10.0 mi Calm Calm - N/A   Clear
5:16 PM 78.8 °F 69.8 °F 74% 29.85 in 10.0 mi Calm Calm - N/A   Clear
5:35 PM 78.8 °F 68.0 °F 69% 29.85 in 10.0 mi Calm Calm - N/A   Clear
5:57 PM 78.8 °F 69.8 °F 74% 29.85 in 10.0 mi Calm Calm - N/A   Clear
6:15 PM 78.8 °F 68.0 °F 69% 29.85 in 10.0 mi Calm Calm - N/A   Clear
6:35 PM 78.8 °F 69.8 °F 74% 29.85 in 10.0 mi Calm Calm - N/A   Clear
6:55 PM 78.8 °F 69.8 °F 74% 29.85 in 10.0 mi Calm Calm - N/A   Clear
6:56 PM 78.8 °F 69.8 °F 74% 29.85 in 10.0 mi Calm Calm - N/A   Clear
7:19 PM 78.8 °F 69.8 °F 74% 29.85 in 10.0 mi East 3.5 mph - N/A   Clear
7:36 PM 78.8 °F 69.8 °F 74% 29.85 in 10.0 mi Calm Calm - N/A   Clear
7:56 PM 77.0 °F 69.8 °F 78% 29.85 in 10.0 mi Calm Calm - N/A   Scattered Clouds
8:15 PM 75.2 °F 69.8 °F 83% 29.85 in 10.0 mi Calm Calm - N/A   Scattered Clouds
8:16 PM 75.2 °F 69.8 °F 83% 29.85 in 10.0 mi Calm Calm - N/A   Scattered Clouds
8:35 PM 73.4 °F 69.8 °F 88% 29.85 in 10.0 mi Calm Calm - N/A   Clear
8:39 PM 73.4 °F 69.8 °F 88% 29.85 in 10.0 mi Calm Calm - N/A   Clear
8:58 PM 73.4 °F 71.6 °F 94% 29.86 in 10.0 mi East 3.5 mph - N/A   Clear
9:15 PM 71.6 °F 69.8 °F 94% 29.87 in 10.0 mi East 3.5 mph - N/A   Clear
9:35 PM 71.6 °F 69.8 °F 94% 29.87 in 10.0 mi Calm Calm - N/A   Clear
9:36 PM 71.6 °F 69.8 °F 94% 29.87 in 10.0 mi Calm Calm - N/A   Clear
9:55 PM 71.6 °F 69.8 °F 94% 29.87 in 10.0 mi Calm Calm - N/A   Mostly Cloudy
9:56 PM 71.6 °F 69.8 °F 94% 29.87 in 10.0 mi Calm Calm - N/A   Mostly Cloudy
10:19 PM 71.6 °F 69.8 °F 94% 29.87 in 10.0 mi Calm Calm - N/A   Scattered Clouds
10:36 PM 71.6 °F 69.8 °F 94% 29.88 in 7.0 mi Calm Calm - N/A   Clear
11:15 PM 69.8 °F 69.8 °F 100% 29.88 in 10.0 mi SSW 3.5 mph - N/A   Scattered Clouds
11:16 PM 69.8 °F 69.8 °F 100% 29.88 in 10.0 mi SSW 3.5 mph - N/A   Scattered Clouds
11:35 PM 69.8 °F 68.0 °F 94% 29.88 in 10.0 mi SW 3.5 mph - N/A   Scattered Clouds
11:40 PM 69.8 °F 68.0 °F 94% 29.88 in 10.0 mi SW 3.5 mph - N/A   Scattered Clouds
11:57 PM 69.8 °F 68.0 °F 94% 29.88 in 10.0 mi SW 3.5 mph - N/A   Clear